TimeCDT,TemperatureF,Dew PointF,Humidity,Sea Level PressureIn,VisibilityMPH,Wind Direction,Wind SpeedMPH,Gust SpeedMPH,PrecipitationIn,Events,Conditions,WindDirDegrees,DateUTC
12:53 AM,75.2,71.6,89,30.13,10.0,SE,4.6,-,N/A,,Overcast,130,2012-10-12 05:53:00
1:53 AM,75.0,71.1,87,30.14,10.0,ESE,5.8,-,N/A,,Overcast,120,2012-10-12 06:53:00
2:53 AM,73.4,69.8,88,30.12,10.0,ESE,4.6,-,N/A,,Scattered Clouds,120,2012-10-12 07:53:00
3:53 AM,72.0,70.0,93,30.14,10.0,Calm,Calm,-,N/A,,Scattered Clouds,0,2012-10-12 08:53:00
4:53 AM,71.1,69.1,93,30.13,10.0,Calm,Calm,-,N/A,,Scattered Clouds,0,2012-10-12 09:53:00
5:53 AM,71.1,69.1,93,30.14,10.0,Calm,Calm,-,N/A,,Scattered Clouds,0,2012-10-12 10:53:00
6:53 AM,70.0,69.1,97,30.16,10.0,East,3.5,-,N/A,,Partly Cloudy,80,2012-10-12 11:53:00
7:53 AM,71.1,70.0,96,30.16,10.0,Calm,Calm,-,N/A,,Partly Cloudy,0,2012-10-12 12:53:00
8:53 AM,75.2,71.6,89,30.17,10.0,East,4.6,-,N/A,,Partly Cloudy,100,2012-10-12 13:53:00
9:53 AM,78.1,71.1,79,30.20,10.0,ESE,6.9,-,N/A,,Partly Cloudy,120,2012-10-12 14:53:00
10:53 AM,82.4,69.8,66,30.18,10.0,SSE,8.1,-,N/A,,Scattered Clouds,150,2012-10-12 15:53:00
11:53 AM,82.9,66.9,58,30.19,10.0,Variable,5.8,-,N/A,,Scattered Clouds,0,2012-10-12 16:53:00
12:53 PM,84.0,66.0,55,30.17,10.0,SSE,5.8,-,N/A,,Scattered Clouds,160,2012-10-12 17:53:00
1:53 PM,87.1,66.9,51,30.14,10.0,East,10.4,-,N/A,,Scattered Clouds,100,2012-10-12 18:53:00
2:53 PM,84.2,64.4,51,30.11,10.0,ESE,4.6,-,N/A,,Scattered Clouds,110,2012-10-12 19:53:00
3:53 PM,82.9,66.9,58,30.12,10.0,East,11.5,-,N/A,,Scattered Clouds,90,2012-10-12 20:53:00
4:53 PM,82.4,68.0,62,30.10,10.0,ESE,11.5,-,N/A,,Partly Cloudy,110,2012-10-12 21:53:00
5:53 PM,81.0,68.0,65,30.12,10.0,ESE,11.5,-,N/A,,Partly Cloudy,110,2012-10-12 22:53:00
6:53 PM,78.1,68.0,71,30.13,10.0,ESE,8.1,-,N/A,,Partly Cloudy,120,2012-10-12 23:53:00
7:53 PM,75.9,71.1,85,30.14,10.0,East,4.6,-,N/A,,Partly Cloudy,100,2012-10-13 00:53:00
8:53 PM,77.0,69.8,78,30.13,10.0,ESE,9.2,-,N/A,,Mostly Cloudy,120,2012-10-13 01:53:00
9:24 PM,75.2,69.8,83,30.13,10.0,SE,8.1,-,N/A,,Partly Cloudy,130,2012-10-13 02:24:00
9:53 PM,75.0,71.1,87,30.15,10.0,ESE,5.8,-,N/A,,Partly Cloudy,120,2012-10-13 02:53:00
10:53 PM,73.9,70.0,87,30.15,10.0,SE,6.9,-,N/A,,Partly Cloudy,130,2012-10-13 03:53:00
11:53 PM,73.0,71.1,93,30.14,10.0,SE,5.8,-,N/A,,Partly Cloudy,130,2012-10-13 04:53:00